This is the latest recevied weather packets stored in our database for station/object W1QED. If no packets are shown the sender has not sent any weather packets the latest 10 day(s).
| Time | Temp. | Humidity | Pressure | Rain* | Wind** | Luminosity | Snow |
|---|---|---|---|---|---|---|---|
| 1777905034 | 15.56° C | 31% | 1009.8 hPa | 0 mm | - | - | - |
| 1777904730 | 15.56° C | 30% | 1009.6 hPa | 0 mm | - | - | - |
| 1777904428 | 15.56° C | 31% | 1009.7 hPa | 0 mm | - | - | - |
| 1777904130 | 15.56° C | 31% | 1009.7 hPa | 0 mm | - | - | - |
| 1777903825 | 15.56° C | 32% | 1009.6 hPa | 0 mm | - | - | - |
| 1777903525 | 15° C | 33% | 1009.7 hPa | 0 mm | - | - | - |
| 1777903228 | 15° C | 35% | 1009.8 hPa | 0 mm | - | - | - |
| 1777902922 | 15° C | 33% | 1009.8 hPa | 0 mm | - | - | - |
| 1777902620 | 15° C | 32% | 1009.8 hPa | 0 mm | - | - | - |
| 1777902321 | 15° C | 33% | 1009.8 hPa | 0 mm | - | - | - |
| 1777902017 | 14.44° C | 34% | 1010 hPa | 0 mm | - | - | - |
| 1777901717 | 14.44° C | 34% | 1010 hPa | 0 mm | - | - | - |
| 1777901416 | 14.44° C | 34% | 1010 hPa | 0 mm | - | - | - |
| 1777901115 | 14.44° C | 35% | 1010 hPa | 0 mm | - | - | - |
| 1777900812 | 13.89° C | 36% | 1010.1 hPa | 0 mm | - | - | - |
| 1777900512 | 13.89° C | 34% | 1010.3 hPa | 0 mm | - | - | - |
| 1777900209 | 13.89° C | 37% | 1010.3 hPa | 0 mm | - | - | - |
| 1777899908 | 13.89° C | 37% | 1010.3 hPa | 0 mm | - | - | - |
| 1777899610 | 13.89° C | 35% | 1010.4 hPa | 0 mm | - | - | - |
| 1777899305 | 13.33° C | 37% | 1010.3 hPa | 0 mm | - | - | - |
| 1777899003 | 13.33° C | 36% | 1010.3 hPa | 0 mm | - | - | - |
| 1777898702 | 12.78° C | 36% | 1010.5 hPa | 0 mm | - | - | - |
| 1777898460 | 12.78° C | 39% | 1010.5 hPa | 0 mm | - | - | - |
| 1777898159 | 12.22° C | 39% | 1010.6 hPa | 0 mm | - | - | - |
| 1777897856 | 11.67° C | 40% | 1010.6 hPa | 0 mm | - | - | - |
* Rain latest hour (hover to see other rain measurements)
** Current wind speed in m/s (hover to see current wind gust speed)